Location: Peebles
(55.6412°N, 3.1714°W)
Time: 20:03:40
(UTC+01:00)

Envisat - Pass Details

Date: 29 February 2024
Orbit: 762 x 764 km, 98.3° (Epoch: 21 April)

Event Time Altitude Azimuth Distance (km) Brightness Sun altitude
Rises 05:54:38 0° 10° (N) 3,247 6.4 -10.7°
Reaches altitude 10° 05:57:38 10° 351° (N) 2,316 5.4 -10.3°
Maximum altitude 06:00:55 18° 311° (NW) 1,836 4.5 -9.8°
Enters shadow 06:03:39 12° 276° (W) 2,172 4.7 -9.4°
